QPF
0.02 0.02 0.01 0.01 0.01 0.01 0.01 0.01 0.01 0.01 0.01 0.00 0.00 0.00 0.00 0.00 0.01 0.01 0.01 0.01 0.01 0.01 0.01 0.01 0.01 0.02 0.02 0.02 0.02 0.03 0.03 0.04 0.06 0.07 0.07 0.07 0.06 0.05 0.06 0.05 0.06 0.07 0.09
0.02 0.02 0.01 0.01 0.01 0.00 0.00 0.01 0.01 0.00 0.00 0.00 0.00 0.00 0.00 0.00 0.01 0.02 0.02 0.02 0.02 0.02 0.02 0.02 0.02 0.02 0.03 0.02 0.02 0.02 0.03 0.04 0.05 0.07 0.08 0.07 0.07 0.06 0.06 0.05 0.05 0.05 0.05
0.02 0.01 0.01 0.01 0.01 0.01 0.01 0.00 0.00 0.00 0.00 0.00 0.00 0.00 0.01 0.01 0.02 0.02 0.03 0.03 0.03 0.03 0.03 0.02 0.02 0.03 0.03 0.02 0.03 0.03 0.03 0.04 0.05 0.06 0.07 0.07 0.06 0.06 0.05 0.04 0.03 0.03 0.02
0.02 0.01 0.01 0.01 0.01 0.01 0.01 0.00 0.00 0.01 0.01 0.01 0.01 0.01 0.01 0.01 0.01 0.01 0.01 0.03 0.04 0.04 0.03 0.03 0.03 0.03 0.02 0.02 0.03 0.03 0.03 0.04 0.04 0.05 0.05 0.05 0.04 0.04 0.03 0.02 0.02 0.02 0.01
0.01 0.01 0.01 0.01 0.01 0.01 0.01 0.01 0.01 0.01 0.01 0.01 0.01 0.01 0.02 0.01 0.01 0.01 0.02 0.02 0.03 0.03 0.03 0.03 0.03 0.03 0.02 0.02 0.02 0.02 0.03 0.04 0.03 0.03 0.03 0.03 0.03 0.03 0.02 0.01 0.01 0.01 0.01
0.01 0.01 0.01 0.01 0.01 0.01 0.01 0.01 0.01 0.01 0.02 0.02 0.01 0.02 0.02 0.02 0.02 0.02 0.02 0.02 0.02 0.03 0.02 0.02 0.02 0.03 0.02 0.01 0.01 0.01 0.02 0.03 0.04 0.04 0.04 0.03 0.03 0.02 0.02 0.01 0.01 0.02 0.02
0.01 0.01 0.01 0.01 0.01 0.01 0.01 0.02 0.01 0.01 0.03 0.02 0.01 0.02 0.02 0.02 0.03 0.03 0.04 0.04 0.02 0.01 0.01 0.01 0.01 0.02 0.02 0.01 0.01 0.01 0.01 0.02 0.03 0.04 0.05 0.04 0.04 0.03 0.02 0.02 0.02 0.02 0.03
0.02 0.01 0.01 0.01 0.01 0.01 0.01 0.02 0.01 0.01 0.03 0.03 0.01 0.02 0.03 0.02 0.04 0.05 0.07 0.06 0.03 0.01 0.01 0.02 0.02 0.02 0.02 0.01 0.01 0.01 0.01 0.01 0.02 0.03 0.04 0.03 0.02 0.01 0.01 0.02 0.02 0.02 0.02
0.01 0.01 0.01 0.01 0.01 0.01 0.01 0.01 0.01 0.01 0.02 0.04 0.02 0.02 0.02 0.03 0.06 0.08 0.08 0.06 0.04 0.03 0.02 0.02 0.02 0.02 0.02 0.01 0.02 0.02 0.02 0.02 0.02 0.02 0.03 0.02 0.01 0.00 0.01 0.02 0.02 0.02 0.03
0.01 0.01 0.01 0.01 0.01 0.01 0.01 0.01 0.01 0.02 0.02 0.03 0.02 0.02 0.02 0.02 0.04 0.06 0.07 0.05 0.05 0.04 0.03 0.03 0.02 0.02 0.01 0.01 0.03 0.03 0.03 0.03 0.02 0.01 0.02 0.02 0.01 0.00 0.00 0.02 0.02 0.02 0.02
0.01 0.00 0.01 0.02 0.01 0.01 0.01 0.01 0.01 0.01 0.02 0.02 0.02 0.01 0.01 0.02 0.03 0.03 0.03 0.03 0.02 0.02 0.02 0.02 0.02 0.02 0.01 0.01 0.02 0.02 0.02 0.03 0.03 0.02 0.02 0.02 0.01 0.01 0.01 0.01 0.01 0.01 0.02
0.02 0.01 0.01 0.02 0.01 0.01 0.01 0.01 0.01 0.01 0.01 0.01 0.01 0.01 0.01 0.01 0.01 0.01 0.01 0.01 0.01 0.01 0.01 0.01 0.01 0.01 0.01 0.01 0.01 0.01 0.01 0.02 0.02 0.02 0.01 0.01 0.01 0.01 0.01 0.01 0.01 0.00 0.01
0.02 0.02 0.02 0.01 0.01 0.01 0.01 0.01 0.01 0.01 0.01 0.01 0.00 0.00 0.01 0.01 0.01 0.01 0.00 0.00 0.00 0.00 0.00 0.00 0.00 0.01 0.01 0.01 0.01 0.01 0.01 0.01 0.02 0.01 0.01 0.01 0.01 0.00 0.00 0.00 0.00 0.00 0.00
0.02 0.02 0.02 0.02 0.02 0.02 0.01 0.01 0.01 0.01 0.01 0.01 0.00 0.00 0.00 0.00 0.00 0.00 0.00 0.00 0.00 0.00 0.00 0.00 0.00 0.00 0.00 0.00 0.00 0.00 0.00 0.00 0.00 0.01 0.01 0.00 0.00 0.00 0.00 0.00 0.00 0.00 0.00
0.02 0.02 0.02 0.02 0.01 0.01 0.01 0.00 0.00 0.00 0.00 0.00 0.00 0.00 0.00 0.00 0.00 0.00 0.00 0.00 0.00 0.00 0.00 0.00 0.00 0.00 0.00 0.00 0.00 0.00 0.00 0.00 0.00 0.00 0.00 0.00 0.00 0.00 0.00 0.00 0.00 0.00 0.00
0.02 0.02 0.01 0.01 0.01 0.00 0.00 0.00 0.00 0.00 0.00 0.00 0.00 0.00 0.00 0.00 0.00 0.00 0.00 0.00 0.00 0.00 0.00 0.00 0.00 0.00 0.00 0.00 0.00 0.00 0.00 0.00 0.00 0.00 0.00 0.00 0.00 0.00 0.00 0.00 0.00 0.00 0.00
0.02 0.01 0.01 0.00 0.00 0.00 0.00 0.00 0.00 0.00 0.00 0.00 0.00 0.00 0.00 0.00 0.00 0.00 0.00 0.00 0.00 0.00 0.00 0.00 0.00 0.00 0.00 0.00 0.00 0.00 0.00 0.00 0.00 0.00 0.00 0.00 0.00 0.00 0.00 0.00 0.00 0.00 0.00
0.01 0.00 0.00 0.00 0.00 0.00 0.00 0.00 0.00 0.00 0.00 0.00 0.00 0.00 0.00 0.00 0.00 0.00 0.00 0.00 0.00 0.00 0.00 0.00 0.00 0.00 0.00 0.00 0.00 0.00 0.00 0.00 0.00 0.00 0.00 0.00 0.00 0.00 0.00 0.00 0.00 0.00 0.00
0.01 0.00 0.00 0.00 0.00 0.00 0.00 0.00 0.00 0.00 0.00 0.00 0.00 0.00 0.00 0.00 0.00 0.00 0.00 0.00 0.00 0.00 0.00 0.00 0.00 0.00 0.00 0.00 0.00 0.00 0.00 0.00 0.00 0.00 0.00 0.00 0.00 0.00 0.00 0.00 0.00 0.00 0.00
0.01 0.00 0.00 0.00 0.00 0.00 0.00 0.00 0.00 0.00 0.00 0.00 0.00 0.00 0.00 0.00 0.00 0.00 0.00 0.00 0.00 0.00 0.00 0.00 0.00 0.00 0.00 0.00 0.00 0.00 0.00 0.00 0.00 0.00 0.00 0.00 0.00 0.00 0.00 0.00 0.00 0.00 0.00
0.00 0.00 0.00 0.00 0.00 0.00 0.00 0.00 0.00 0.00 0.00 0.00 0.00 0.00 0.00 0.00 0.00 0.00 0.00 0.00 0.00 0.00 0.00 0.00 0.00 0.00 0.00 0.00 0.00 0.00 0.00 0.00 0.00 0.00 0.00 0.00 0.00 0.00 0.00 0.00 0.00 0.00 0.00
0.00 0.00 0.00 0.00 0.00 0.00 0.00 0.00 0.00 0.00 0.00 0.00 0.00 0.00 0.00 0.00 0.00 0.00 0.00 0.00 0.00 0.00 0.00 0.00 0.00 0.00 0.00 0.00 0.00 0.00 0.00 0.00 0.00 0.00 0.00 0.00 0.00 0.00 0.00 0.00 0.00 0.00 0.00
0.00 0.00 0.00 0.00 0.00 0.00 0.00 0.00 0.00 0.00 0.00 0.00 0.00 0.00 0.00 0.00 0.00 0.00 0.00 0.00 0.00 0.00 0.00 0.00 0.00 0.00 0.00 0.00 0.00 0.00 0.00 0.00 0.00 0.00 0.00 0.00 0.00 0.00 0.00 0.00 0.00 0.00 0.00
0.00 0.00 0.00 0.00 0.00 0.00 0.00 0.00 0.00 0.00 0.00 0.00 0.00 0.00 0.00 0.00 0.00 0.00 0.00 0.00 0.00 0.00 0.00 0.00 0.00 0.00 0.00 0.00 0.00 0.00 0.00 0.00 0.00 0.00 0.00 0.00 0.00 0.00 0.00 0.00 0.00 0.00 0.00
0.00 0.00 0.00 0.00 0.00 0.00 0.00 0.00 0.00 0.00 0.00 0.00 0.00 0.00 0.00 0.00 0.00 0.00 0.00 0.00 0.00 0.00 0.00 0.00 0.00 0.00 0.00 0.00 0.00 0.00 0.00 0.00 0.00 0.00 0.00 0.00 0.00 0.00 0.00 0.00 0.00 0.00 0.00
0.00 0.00 0.00 0.00 0.00 0.00 0.00 0.00 0.00 0.00 0.00 0.00 0.00 0.00 0.00 0.00 0.00 0.00 0.00 0.00 0.00 0.00 0.00 0.00 0.00 0.00 0.00 0.00 0.00 0.00 0.00 0.00 0.00 0.00 0.00 0.00 0.00 0.00 0.00 0.00 0.00 0.00 0.00
MSLP
1023.12 1022.99 1022.86 1022.73 1022.58 1022.42 1022.23 1022.03 1021.81 1021.59 1021.36 1021.15 1020.93 1020.73 1020.52 1020.32 1020.13 1019.93 1019.73 1019.53 1019.33 1019.12 1018.91 1018.71 1018.53 1018.39 1018.30 1018.30 1018.41 1018.63 1018.97 1019.41 1019.91 1020.45 1020.95 1021.37 1021.67 1021.82 1021.83 1021.72 1021.53 1021.33 1021.18
1023.26 1023.16 1023.05 1022.93 1022.78 1022.62 1022.43 1022.22 1022.00 1021.77 1021.54 1021.31 1021.08 1020.85 1020.63 1020.40 1020.16 1019.93 1019.69 1019.45 1019.21 1018.98 1018.75 1018.53 1018.35 1018.21 1018.14 1018.16 1018.30 1018.57 1018.96 1019.47 1020.06 1020.69 1021.31 1021.86 1022.30 1022.61 1022.77 1022.80 1022.75 1022.65 1022.58
1023.41 1023.35 1023.28 1023.18 1023.06 1022.91 1022.74 1022.54 1022.34 1022.12 1021.90 1021.67 1021.44 1021.20 1020.94 1020.68 1020.40 1020.11 1019.83 1019.54 1019.26 1018.99 1018.73 1018.51 1018.33 1018.20 1018.15 1018.21 1018.38 1018.69 1019.12 1019.67 1020.30 1020.99 1021.67 1022.29 1022.82 1023.23 1023.50 1023.64 1023.69 1023.68 1023.67
1023.55 1023.55 1023.53 1023.47 1023.39 1023.27 1023.13 1022.97 1022.79 1022.60 1022.40 1022.19 1021.96 1021.71 1021.44 1021.14 1020.82 1020.48 1020.14 1019.80 1019.47 1019.17 1018.89 1018.66 1018.49 1018.38 1018.36 1018.44 1018.64 1018.96 1019.40 1019.95 1020.59 1021.26 1021.95 1022.59 1023.15 1023.60 1023.92 1024.13 1024.25 1024.29 1024.32
1023.67 1023.72 1023.75 1023.75 1023.70 1023.62 1023.52 1023.40 1023.26 1023.12 1022.95 1022.77 1022.56 1022.31 1022.03 1021.71 1021.35 1020.98 1020.59 1020.21 1019.84 1019.51 1019.22 1018.99 1018.82 1018.73 1018.73 1018.82 1019.03 1019.34 1019.75 1020.26 1020.84 1021.47 1022.10 1022.70 1023.23 1023.67 1024.01 1024.24 1024.38 1024.46 1024.51
1023.74 1023.84 1023.91 1023.94 1023.93 1023.89 1023.83 1023.75 1023.66 1023.55 1023.43 1023.28 1023.10 1022.88 1022.60 1022.28 1021.92 1021.52 1021.11 1020.70 1020.32 1019.97 1019.68 1019.44 1019.28 1019.20 1019.20 1019.29 1019.48 1019.75 1020.11 1020.54 1021.03 1021.56 1022.10 1022.61 1023.08 1023.47 1023.78 1024.01 1024.16 1024.25 1024.29
1023.74 1023.88 1023.97 1024.02 1024.04 1024.02 1023.99 1023.94 1023.89 1023.82 1023.74 1023.64 1023.50 1023.31 1023.06 1022.76 1022.41 1022.03 1021.62 1021.22 1020.84 1020.50 1020.21 1019.98 1019.82 1019.74 1019.73 1019.80 1019.94 1020.15 1020.43 1020.76 1021.14 1021.55 1021.97 1022.38 1022.76 1023.09 1023.35 1023.56 1023.69 1023.78 1023.83
1023.69 1023.82 1023.92 1023.97 1023.99 1023.99 1023.97 1023.94 1023.92 1023.89 1023.84 1023.78 1023.68 1023.54 1023.34 1023.09 1022.79 1022.44 1022.08 1021.71 1021.36 1021.04 1020.77 1020.55 1020.40 1020.31 1020.28 1020.31 1020.39 1020.52 1020.70 1020.93 1021.19 1021.47 1021.78 1022.08 1022.37 1022.63 1022.85 1023.03 1023.16 1023.24 1023.28
1023.59 1023.70 1023.77 1023.81 1023.83 1023.82 1023.80 1023.78 1023.77 1023.76 1023.75 1023.73 1023.68 1023.59 1023.45 1023.26 1023.03 1022.75 1022.45 1022.14 1021.85 1021.57 1021.33 1021.13 1020.98 1020.88 1020.82 1020.80 1020.81 1020.86 1020.95 1021.07 1021.22 1021.40 1021.60 1021.82 1022.04 1022.24 1022.43 1022.58 1022.70 1022.78 1022.82
1023.46 1023.54 1023.59 1023.61 1023.60 1023.58 1023.55 1023.53 1023.53 1023.53 1023.54 1023.55 1023.54 1023.51 1023.44 1023.32 1023.17 1022.98 1022.76 1022.53 1022.30 1022.08 1021.87 1021.70 1021.55 1021.42 1021.33 1021.26 1021.21 1021.19 1021.20 1021.23 1021.30 1021.40 1021.52 1021.67 1021.84 1022.01 1022.17 1022.31 1022.43 1022.50 1022.54
1023.35 1023.39 1023.41 1023.40 1023.38 1023.34 1023.31 1023.29 1023.28 1023.29 1023.32 1023.35 1023.38 1023.39 1023.38 1023.34 1023.27 1023.17 1023.04 1022.89 1022.72 1022.56 1022.39 1022.23 1022.08 1021.94 1021.81 1021.69 1021.59 1021.51 1021.46 1021.43 1021.44 1021.49 1021.57 1021.68 1021.82 1021.97 1022.12 1022.25 1022.35 1022.42 1022.45
1023.26 1023.27 1023.27 1023.25 1023.22 1023.18 1023.15 1023.13 1023.12 1023.14 1023.17 1023.22 1023.27 1023.33 1023.37 1023.39 1023.39 1023.36 1023.30 1023.22 1023.11 1022.99 1022.85 1022.70 1022.54 1022.38 1022.23 1022.08 1021.94 1021.82 1021.73 1021.68 1021.66 1021.68 1021.74 1021.84 1021.96 1022.09 1022.23 1022.35 1022.44 1022.50 1022.51
1023.21 1023.21 1023.20 1023.17 1023.15 1023.12 1023.10 1023.09 1023.09 1023.11 1023.15 1023.21 1023.29 1023.37 1023.44 1023.51 1023.55 1023.57 1023.56 1023.52 1023.45 1023.35 1023.22 1023.07 1022.91 1022.73 1022.55 1022.38 1022.23 1022.09 1021.99 1021.93 1021.91 1021.93 1021.99 1022.08 1022.19 1022.31 1022.43 1022.53 1022.59 1022.63 1022.62
1023.19 1023.18 1023.18 1023.17 1023.17 1023.16 1023.16 1023.17 1023.18 1023.22 1023.27 1023.34 1023.42 1023.51 1023.60 1023.68 1023.74 1023.78 1023.79 1023.77 1023.70 1023.60 1023.47 1023.31 1023.13 1022.94 1022.75 1022.57 1022.41 1022.29 1022.20 1022.15 1022.15 1022.18 1022.25 1022.33 1022.43 1022.53 1022.62 1022.68 1022.72 1022.71 1022.67
1023.19 1023.19 1023.20 1023.21 1023.23 1023.25 1023.28 1023.31 1023.35 1023.40 1023.46 1023.53 1023.62 1023.70 1023.79 1023.87 1023.92 1023.95 1023.95 1023.91 1023.83 1023.71 1023.55 1023.37 1023.18 1022.98 1022.79 1022.62 1022.48 1022.38 1022.32 1022.30 1022.32 1022.37 1022.44 1022.53 1022.61 1022.68 1022.73 1022.75 1022.73 1022.69 1022.60
1023.20 1023.21 1023.22 1023.25 1023.29 1023.34 1023.39 1023.45 1023.51 1023.58 1023.65 1023.73 1023.80 1023.88 1023.94 1023.99 1024.02 1024.02 1023.98 1023.90 1023.78 1023.63 1023.45 1023.25 1023.04 1022.85 1022.67 1022.52 1022.41 1022.35 1022.33 1022.35 1022.40 1022.47 1022.55 1022.62 1022.68 1022.71 1022.71 1022.67 1022.61 1022.51 1022.39
1023.21 1023.21 1023.22 1023.25 1023.30 1023.36 1023.43 1023.50 1023.58 1023.66 1023.74 1023.82 1023.89 1023.94 1023.98 1024.00 1023.98 1023.93 1023.85 1023.73 1023.57 1023.38 1023.17 1022.96 1022.76 1022.57 1022.42 1022.31 1022.25 1022.24 1022.26 1022.32 1022.39 1022.48 1022.55 1022.61 1022.63 1022.61 1022.57 1022.48 1022.36 1022.22 1022.07
1023.21 1023.18 1023.17 1023.18 1023.21 1023.27 1023.34 1023.41 1023.50 1023.58 1023.67 1023.74 1023.80 1023.84 1023.85 1023.83 1023.77 1023.68 1023.55 1023.39 1023.19 1022.98 1022.77 1022.56 1022.37 1022.22 1022.11 1022.05 1022.04 1022.08 1022.15 1022.24 1022.34 1022.42 1022.49 1022.52 1022.50 1022.45 1022.35 1022.21 1022.05 1021.88 1021.71
1023.19 1023.12 1023.07 1023.04 1023.04 1023.06 1023.11 1023.18 1023.25 1023.33 1023.41 1023.48 1023.52 1023.54 1023.53 1023.48 1023.39 1023.27 1023.11 1022.92 1022.71 1022.50 1022.29 1022.11 1021.96 1021.86 1021.80 1021.80 1021.85 1021.93 1022.04 1022.16 1022.27 1022.35 1022.39 1022.39 1022.34 1022.24 1022.10 1021.93 1021.74 1021.55 1021.35
1023.15 1023.02 1022.92 1022.84 1022.78 1022.77 1022.77 1022.81 1022.86 1022.93 1022.99 1023.04 1023.07 1023.07 1023.04 1022.97 1022.87 1022.73 1022.56 1022.37 1022.18 1021.99 1021.82 1021.68 1021.59 1021.55 1021.56 1021.61 1021.71 1021.84 1021.98 1022.11 1022.21 1022.28 1022.30 1022.27 1022.18 1022.04 1021.87 1021.67 1021.46 1021.26 1021.05
1023.09 1022.91 1022.74 1022.60 1022.49 1022.41 1022.37 1022.37 1022.38 1022.42 1022.45 1022.49 1022.50 1022.49 1022.45 1022.37 1022.26 1022.13 1021.97 1021.80 1021.64 1021.50 1021.38 1021.31 1021.29 1021.31 1021.39 1021.51 1021.65 1021.81 1021.96 1022.09 1022.19 1022.23 1022.22 1022.15 1022.02 1021.86 1021.66 1021.45 1021.23 1021.02 1020.81
1022.99 1022.77 1022.55 1022.36 1022.19 1022.06 1021.97 1021.91 1021.88 1021.88 1021.88 1021.89 1021.88 1021.85 1021.80 1021.73 1021.62 1021.50 1021.37 1021.25 1021.14 1021.05 1021.01 1021.01 1021.06 1021.15 1021.29 1021.45 1021.63 1021.81 1021.97 1022.08 1022.15 1022.17 1022.12 1022.01 1021.86 1021.68 1021.47 1021.24 1021.02 1020.80 1020.58
1022.85 1022.61 1022.36 1022.13 1021.92 1021.74 1021.60 1021.49 1021.42 1021.37 1021.34 1021.31 1021.28 1021.24 1021.18 1021.10 1021.01 1020.91 1020.81 1020.73 1020.68 1020.65 1020.68 1020.75 1020.86 1021.01 1021.20 1021.40 1021.60 1021.78 1021.92 1022.02 1022.06 1022.04 1021.96 1021.83 1021.65 1021.45 1021.23 1021.00 1020.77 1020.55 1020.32
1022.66 1022.42 1022.17 1021.92 1021.68 1021.47 1021.29 1021.15 1021.04 1020.95 1020.88 1020.81 1020.75 1020.69 1020.61 1020.53 1020.45 1020.37 1020.30 1020.25 1020.24 1020.27 1020.35 1020.47 1020.63 1020.83 1021.04 1021.26 1021.46 1021.63 1021.76 1021.83 1021.84 1021.79 1021.69 1021.53 1021.34 1021.13 1020.90 1020.67 1020.44 1020.21 1019.96
1022.40 1022.19 1021.95 1021.70 1021.46 1021.24 1021.04 1020.87 1020.72 1020.60 1020.49 1020.40 1020.31 1020.22 1020.12 1020.03 1019.94 1019.87 1019.82 1019.79 1019.81 1019.87 1019.98 1020.13 1020.31 1020.52 1020.75 1020.96 1021.16 1021.32 1021.42 1021.47 1021.46 1021.39 1021.26 1021.09 1020.90 1020.68 1020.45 1020.22 1019.98 1019.73 1019.45
1022.06 1021.88 1021.67 1021.45 1021.22 1021.01 1020.80 1020.62 1020.45 1020.30 1020.17 1020.05 1019.93 1019.81 1019.70 1019.59 1019.49 1019.41 1019.36 1019.33 1019.35 1019.41 1019.52 1019.67 1019.86 1020.06 1020.28 1020.48 1020.66 1020.80 1020.89 1020.92 1020.89 1020.81 1020.68 1020.51 1020.31 1020.09 1019.86 1019.62 1019.37 1019.10 1018.79
Thickness
5590 5587 5585 5584 5583 5582 5581 5580 5580 5580 5581 5582 5583 5585 5586 5587 5589 5592 5594 5595 5598 5599 5601 5603 5604 5605 5608 5609 5610 5611 5610 5610 5603 5594 5591 5589 5589 5589 5589 5589 5589 5588 5586
5581 5579 5576 5575 5574 5572 5570 5570 5570 5570 5572 5572 5573 5575 5576 5578 5580 5582 5584 5586 5588 5590 5591 5593 5594 5596 5597 5599 5601 5602 5601 5600 5597 5589 5584 5583 5582 5581 5581 5581 5581 5581 5579
5573 5571 5568 5566 5564 5562 5561 5560 5561 5562 5562 5563 5564 5566 5567 5569 5571 5573 5574 5576 5578 5580 5582 5583 5585 5586 5587 5589 5591 5592 5592 5591 5588 5585 5580 5577 5576 5575 5575 5575 5574 5573 5573
5566 5563 5559 5557 5555 5554 5553 5552 5553 5554 5554 5556 5557 5558 5559 5561 5563 5565 5567 5568 5570 5571 5572 5573 5575 5576 5578 5580 5582 5583 5583 5582 5580 5578 5575 5573 5572 5570 5570 5570 5569 5568 5569
5558 5556 5553 5550 5549 5548 5547 5546 5546 5546 5548 5549 5549 5550 5551 5552 5553 5556 5559 5561 5562 5563 5564 5564 5564 5565 5566 5570 5574 5575 5576 5577 5576 5574 5572 5570 5568 5566 5566 5566 5566 5565 5563
5553 5550 5547 5545 5543 5542 5541 5540 5540 5540 5541 5542 5543 5543 5543 5543 5541 5545 5550 5553 5555 5556 5557 5557 5558 5558 5558 5560 5562 5564 5566 5568 5569 5569 5568 5565 5562 5563 5562 5563 5562 5562 5561
5548 5546 5543 5542 5539 5537 5537 5536 5535 5534 5535 5536 5537 5537 5536 5533 5534 5537 5541 5546 5548 5548 5550 5552 5554 5552 5554 5555 5554 5555 5557 5557 5559 5562 5562 5560 5558 5557 5557 5558 5557 5559 5558
5544 5542 5540 5538 5536 5534 5533 5531 5530 5530 5530 5530 5530 5531 5530 5528 5528 5531 5534 5539 5541 5541 5543 5545 5546 5546 5547 5549 5551 5552 5552 5552 5553 5555 5554 5553 5553 5552 5553 5554 5554 5554 5555
5542 5539 5537 5535 5533 5531 5529 5527 5526 5526 5526 5526 5526 5526 5526 5525 5524 5527 5529 5535 5536 5537 5538 5537 5540 5540 5538 5540 5546 5547 5547 5547 5546 5546 5546 5545 5545 5546 5547 5551 5553 5555 5555
5539 5537 5534 5532 5530 5528 5526 5524 5524 5523 5523 5524 5523 5523 5523 5522 5520 5523 5525 5534 5534 5535 5534 5533 5530 5532 5533 5536 5541 5543 5543 5543 5544 5544 5542 5543 5544 5545 5545 5547 5551 5553 5553
5536 5534 5531 5529 5527 5525 5524 5523 5522 5523 5523 5522 5522 5521 5521 5519 5519 5520 5521 5528 5531 5533 5534 5533 5529 5527 5529 5531 5534 5537 5537 5539 5542 5544 5545 5546 5546 5546 5547 5547 5548 5550 5551
5534 5532 5529 5527 5527 5525 5523 5522 5522 5522 5523 5523 5522 5522 5522 5520 5518 5518 5519 5521 5524 5529 5531 5531 5528 5526 5527 5529 5531 5532 5534 5536 5543 5545 5546 5547 5548 5548 5548 5547 5546 5546 5546
5533 5531 5529 5527 5526 5525 5524 5524 5525 5525 5528 5529 5528 5527 5526 5525 5521 5518 5519 5521 5522 5526 5527 5524 5524 5526 5527 5530 5530 5532 5535 5540 5543 5544 5545 5547 5548 5547 5546 5546 5546 5546 5546
5533 5531 5530 5529 5527 5526 5526 5528 5528 5529 5530 5530 5530 5530 5528 5528 5527 5526 5527 5526 5524 5527 5528 5527 5526 5528 5530 5530 5533 5537 5540 5542 5543 5544 5546 5547 5548 5548 5549 5551 5551 5551 5552
5534 5533 5532 5531 5531 5528 5528 5527 5528 5526 5526 5527 5531 5531 5531 5530 5524 5520 5523 5528 5529 5529 5529 5534 5537 5539 5540 5541 5542 5543 5544 5545 5545 5546 5547 5549 5550 5551 5552 5552 5551 5553 5553
5535 5535 5535 5534 5533 5534 5533 5531 5525 5525 5524 5523 5523 5524 5526 5524 5522 5523 5523 5524 5525 5526 5530 5538 5541 5543 5544 5546 5547 5548 5548 5549 5549 5550 5550 5551 5552 5553 5554 5555 5555 5555 5555
5538 5537 5538 5538 5537 5538 5537 5537 5536 5531 5527 5526 5526 5526 5525 5525 5525 5525 5526 5527 5528 5529 5536 5543 5546 5547 5548 5550 5551 5552 5552 5552 5551 5552 5553 5554 5555 5556 5556 5557 5557 5558 5558
5541 5538 5539 5540 5541 5542 5542 5543 5543 5544 5542 5540 5534 5531 5531 5530 5530 5530 5530 5530 5539 5540 5546 5549 5550 5551 5552 5553 5555 5555 5556 5555 5556 5556 5556 5557 5557 5558 5559 5559 5560 5559 5559
5546 5545 5544 5545 5545 5546 5546 5548 5549 5549 5549 5550 5549 5543 5538 5537 5536 5536 5536 5542 5550 5554 5555 5556 5557 5557 5558 5558 5558 5559 5559 5559 5559 5559 5559 5559 5560 5561 5562 5562 5563 5560 5559
5550 5546 5546 5549 5551 5551 5552 5553 5554 5554 5555 5556 5556 5556 5552 5550 5551 5552 5550 5553 5557 5559 5561 5561 5562 5562 5562 5563 5563 5564 5564 5563 5563 5563 5564 5564 5564 5564 5564 5564 5565 5566 5566
5558 5555 5549 5553 5556 5557 5558 5558 5559 5560 5561 5562 5563 5562 5556 5560 5562 5563 5564 5564 5565 5566 5566 5566 5567 5568 5568 5568 5569 5570 5569 5569 5569 5569 5569 5568 5568 5568 5567 5568 5568 5569 5569
5565 5564 5562 5563 5563 5563 5563 5564 5565 5566 5567 5567 5568 5568 5561 5564 5569 5571 5571 5571 5572 5571 5571 5571 5573 5574 5574 5575 5575 5573 5573 5573 5573 5572 5571 5571 5571 5571 5571 5571 5571 5572 5571
5569 5570 5569 5569 5569 5566 5566 5569 5571 5571 5572 5573 5574 5575 5574 5575 5576 5577 5577 5577 5577 5577 5577 5576 5576 5578 5579 5578 5577 5577 5577 5578 5577 5576 5574 5573 5574 5574 5574 5573 5573 5573 5573
5577 5576 5576 5576 5575 5575 5575 5576 5577 5578 5579 5579 5580 5580 5581 5581 5581 5582 5582 5582 5582 5582 5582 5582 5582 5582 5581 5580 5580 5580 5581 5579 5578 5577 5575 5575 5575 5575 5576 5575 5575 5575 5574
5583 5582 5582 5582 5582 5582 5582 5582 5583 5584 5584 5585 5585 5586 5587 5588 5588 5588 5588 5588 5588 5588 5587 5587 5587 5587 5586 5585 5585 5584 5584 5580 5578 5576 5575 5575 5575 5575 5576 5576 5576 5576 5575
5589 5588 5588 5589 5588 5588 5588 5588 5589 5589 5590 5591 5591 5592 5592 5593 5593 5594 5594 5593 5593 5593 5593 5593 5592 5592 5591 5590 5589 5588 5585 5582 5580 5577 5573 5574 5575 5576 5577 5577 5577 5576 5576